User: anonymous   Login
Location: Unspecified
(0.0000°N, 0.0000°E)
Time: 18:20:51
(UTC+00:00)
Language:

UFO F6 - Orbit

View from above orbital plane
View from above orbital plane
View from above satellite
View from above satellite

Ground track
Ground track

The orbit data is extracted from the following two-line orbital elements,

1 23696U 95057A   21136.36410672 -.00000193  00000-0  00000-0 0  9998
2 23696  10.1048  22.6203 0006537  70.0157 225.2906  0.98766486 93426
Epoch (UTC): 16 May 2021 08:44:18
Eccentricity: 0.0006537
inclination: 10.1048°
perigee height: 36186 km
apogee height: 36241 km
right ascension of ascending node: 22.6203°
argument of perigee: 70.0157°
revolutions per day: 0.98766486
mean anomaly at epoch: 225.2906°
orbit number at epoch: 9342

The dashed part of the orbit path shows where the satellite is in the earth's shadow,  

DLR